User: anonymous
Location: Clatteringshaws Loch
(55.0508°N, 4.2860°W)
Time: 10:04:11
(UTC+01:00)
Language:

Sapphire - Orbit

View from above orbital plane
View from above orbital plane
View from above satellite
View from above satellite

Ground track
Ground track

The orbit data is extracted from the following two-line orbital elements,

1 26932U 01043D   14210.47281442 -.00000013  00000-0  27176-4 0  6685
2 26932 067.0571 290.4116 0005616 293.7710 066.2802 14.30017794669696
Epoch (UTC): 29 July 2014 11:20:51
Eccentricity: 0.0005616
inclination: 67.0571°
perigee height: 787 km
apogee height: 796 km
right ascension of ascending node: 290.4116°
argument of perigee: 293.7710°
revolutions per day: 14.30017794
mean anomaly at epoch: 66.2802°
orbit number at epoch: 66969

The dashed part of the orbit path shows where the satellite is in the earth's shadow,  

DLR